Location: Unspecified
(0.0000°N, 0.0000°E)
Time: 08:42:01
(UTC+00:00)

KH 9-17 ELINT - Visible Passes

Search period start: 28 November 2020 00:00
Search period end: 08 December 2020 00:00
Orbit: 598 x 599 km, 96.0° (Epoch: 22 November)

Date Brightness Start Highest point End Pass type
(mag) Time Alt. Az. Time Alt. Az. Time Alt. Az.
28 Nov 7.5 18:34:13 12° NE 18:37:22 27° E 18:40:57 10° SSE visible
28 Nov 9.5 20:11:58 10° WNW 20:12:59 11° W 20:14:01 10° W visible
29 Nov 6.9 18:44:52 15° NE 18:48:04 40° E 18:52:02 10° S visible
30 Nov 6.5 18:55:31 16° NNE 18:58:46 61° E 19:02:57 10° S visible
01 Dec 6.4 19:06:10 16° N 19:09:28 87° W 19:13:42 10° S visible
02 Dec 7.0 19:16:48 15° N 19:20:10 57° W 19:24:19 10° SSW visible
03 Dec 7.8 19:27:27 13° NNW 19:30:52 37° W 19:34:47 10° SSW visible
04 Dec 8.5 19:38:05 10° NNW 19:41:34 25° W 19:45:04 10° SW visible
05 Dec 8.1 18:13:52 10° ENE 18:16:39 17° E 18:19:25 10° SE visible
05 Dec 9.1 19:49:27 10° NW 19:52:16 18° W 19:55:06 10° WSW visible
06 Dec 7.6 18:23:53 10° NE 18:27:20 25° E 18:30:48 10° SSE visible
06 Dec 9.4 20:01:23 10° WNW 20:02:57 12° W 20:04:31 10° WSW visible
07 Dec 7.1 18:34:09 10° NNE 18:38:01 37° E 18:41:55 10° SSE visible
